Regional Weather Roundup
Issued by NWS Portland, ME

Current Version | Previous Version | Text Only | Print | Product List | Glossary On
Versions: 1 2 3 4 5 6 7 8 9 10 11 12 13 14 15 16 17 18 19 20 21 22 23 24 25 26 27 28 29 30 31 32 33 34 35 36 37 38 39 40 41 42 43 44 45 46 47 48 49 50
000
ASUS41 KGYX 221610
RWRGYX
WEATHER ROUNDUP FOR MAINE AND NEW HAMPSHIRE
NATIONAL WEATHER SERVICE GRAY ME
1200 PM EDT MON JUL 22 2019

MEZ002-005-006-010-012-015-018-020-021-024-026-027-029-221700-
MAINE

CITY           SKY/WX    TMP DP  RH WIND       PRES   REMARKS
PORTLAND       CLOUDY    77  62  59 CALM      29.90R
SANFORD        LGT RAIN  77  65  66 N8        29.90S
BAR HARBOR     FAIR      79  60  52 NW8       29.88R
WISCASSET      PTSUNNY   79  60  52 CALM      29.91R
ROCKLAND       FAIR      79  64  60 VRB5      29.89R
FRYEBURG       FAIR      76  60  57 N5        29.93S
AUGUSTA        PTSUNNY   76  60  57 VRB5      29.91S
WATERVILLE     FAIR      75  58  55 N7        29.89R
BANGOR         PTSUNNY   77  56  48 W12       29.89R
GREENVILLE       N/A     66  53  63 NW7       29.92R
MILLINOCKET    FAIR      71  53  52 NW9G17    29.91R
HOULTON        FAIR      72  55  55 W8        29.87R
PRESQUE ISLE   FAIR      69  51  52 NW7       29.89R
FRENCHVILLE    FAIR      64  44  48 NW12      29.88F
CARIBOU        FAIR      69  48  47 VRB6      29.88R
$$

NHZ002-005-008-009-011-012-014-221700-
NEW HAMPSHIRE

CITY           SKY/WX    TMP DP  RH WIND       PRES   REMARKS
PORTSMOUTH     CLOUDY    76  62  61 E7        29.88S
ROCHESTER      LGT RAIN  76  64  66 NE3       29.90S
NASHUA         CLOUDY    78  66  66 N7        29.90S
MANCHESTER     CLOUDY    79  63  57 N8        29.88S
CONCORD        LGT RAIN  74  65  73 NW8       29.91R
LACONIA        CLOUDY    74  66  76 W3        29.93R
PLYMOUTH       LGT RAIN  69  63  80 W8        29.93S
BERLIN         FAIR      70  53  54 VRB3      29.97R
WHITEFIELD     LGT RAIN  67  55  65 CALM      29.98R
JAFFREY        CLOUDY    75  62  64 VRB5      29.94R
KEENE          CLOUDY    72  68  87 NW3       29.92S
LEBANON        LGT RAIN  69  62  78 NE6       29.94S
MT WASHINGTON  PTSUNNY   48  46  93 W16         N/A
$$

VTZ005-007-008-221700-
VERMONT

CITY           SKY/WX    TMP DP  RH WIND       PRES   REMARKS
ST JOHNSBURY     N/A     64  60  87 MISG      29.96S
MONTPELIER     LGT RAIN  61  57  87 N3        30.01F
BURLINGTON     CLOUDY    67  59  75 S5        29.94F
$$

MAZ007-012-024-CTZ003-RIZ002-NYZ038-NYZ072-221700-
SOUTHERN NEW ENGLAND AND NY

CITY           SKY/WX    TMP DP  RH WIND       PRES   REMARKS
BOSTON         PTSUNNY   81  65  58 E14       29.87S
WORCESTER      CLOUDY    77  65  66 NE5       29.91S
NANTUCKET      FAIR      80  71  74 S8        29.85S
PROVIDENCE     PTSUNNY   82  68  62 SE3       29.86S
HARTFORD       CLOUDY    79  66  64 N6        29.86F
ALBANY         CLOUDY    70  63  78 N5        29.91S
NEW YORK CITY  PTSUNNY   87  67  51 SE12      29.81F HX  90
$$

ANZ081-ANZ082-ANZ150-NHZ014-MEZ023>029-221700-
COASTAL MARINE OBSERVATIONS

STATION/POSITION TIME  TEMP    WIND        PRES    WAVE
                       AIR SEA DIR/SP/G            HT/PER
                 (UTC) (F)     (DEG/KT/KT) (MB)    (FT/S)
ISLE OF SHOALS   1500   71      30/ 13/ 14 1011.3F
JEFFREYS LEDGE   1538      68                N/A     2/ 7
CASHES LEDGE BUO 1550   65 65   20/  6/  6 1012.0F   2/ 7
GEORGES BANK BUO 1550   66 61  140/  6/  6 1011.9R   3/ 6
$$

.............KEY..............
   WCI - WIND CHILL
   TC  - TEMPERATURE IN CELSIUS
   VSB - VISIBILITY IN MILES
   HX  - HEAT INDEX
   FAIR- INDICATES FEW OR NO CLOUDS BELOW 12,000 FT, WITH NO
         SIGNIFICANT WEATHER AND/OR OBSTRUCTIONS TO VISIBILITY.





USA.gov is the U.S. government's official web portal to all federal, state and local government web resources and services.